DECAYED

NOAA 16 DEB, 41369 (Decayed)

Orbit data source: Space-Track

NOAA 16 DEB, 41369 was space debris in SSO originally from a launch on Thu, 21 Sep 2000 UTC launched from the Air Force Western Test Range (AFWTR). Debris objects in space refer to the collection of defunct objects orbiting the Earth. Examples of debris include non-operational satellites, rocket bodies, and fragments generated from explosions, collisions, or faulty payload assembly.

Not visible in the next 10 days
Identifier
41369, 2000-055JN
Orbit
Decayed
Country
Flag of USUS
Related business
Manufacturer
Unknown
Mission
Decayed spacecraft
Bus & Motor
Unknown
Mass
Unknown
Launch date (UTC)
2000-09-21 (26 years ago)
Launch vehicle
Unknown
Launch site
Air Force Western Test Range (AFWTR)
Object type
Payload
Rocket body
Debris
Shape & HBR
Unknown shape, 0.1 m
Radar Cross Section
Medium (>0.1 m² and <1 m²)

Expand to show TLE details & history
Last TLE update: 8 months ago

TLE from 8 months ago
0 NOAA 16 DEB
1 41369U 00055JN  26020.22776338  .01128724  00000-0  41276-1 0  9997
2 41369  98.7705 167.6784 0010165 312.2475  47.7896 15.25395749520353
Epoch: 2026-01-20T05:27Z
TLE epoch observation values (Epoch: 2026-01-20T05:27:58.756Z)
Latitude
0.00002°
Longitude
-33.92907°
Altitude
487.965 km
Speed
7.624 km/s
True Right ascension
11h 10m 42s
True Declination
0° 00' 00"
Sunlit
Object was in full shadow at epoch
Visualization orbit readout
Latitude
Unknown
Longitude
Unknown
Altitude
Unknown
Speed
Unknown
Apparent Right ascension
Unknown
Apparent Declination
Unknown
Sunlit
N/A
Visualization observer readout
Local Sidereal Time
10:56:30
Azimuth
Unknown
Elevation
Unknown
Doppler factor
Unknown
Orbital elements
Apogee altitude
493.598 km
Perigee altitude
479.642 km
Semi-major axis
6,864.757 km
Eccentricity
0.00102
Inclination
98.7705°
RAAN
167.6784°
Arg. of periapsis
312.2475°
True anomaly
47.87595°
Mean anomaly
47.7896°
Eccentric anomaly
47.83277°
Mean motion
3.81597 °/min
Orbital period
94.34 mins
BSTAR
0.041276
Loading maneuver chart data...
Computing Atmospheric mass density...
Loading historical data...
Loading historical data...
Loading historical data...
Loading historical data...
Loading historical data...
Loading historical data...
Loading historical data...

Documentation

Showing up to 5 results
|